Tracking 20383 objects as of 23-Feb-2020
HD Live streaming from Space Station
objects crossing your sky now
Track the group of recently launched Starlink satellites

COSMOS 249 DEB *

Track COSMOS 249 DEB * now!
10-day predictions


NORAD ID: 3790
Int'l Code: 1968-091AX
Perigee: 508.7 km
Apogee: 1,770.6 km
Inclination: 63.0 °
Period: 108.0 minutes
Semi major axis: 7510 km
RCS: 0.0825 m2 (small)
Launch date: October 20, 1968
Source: Commonwealth of Independent States (former USSR) (CIS)
Launch site: TYURATAM MISSILE AND SPACE COMPLEX (TTMTR)

Note: This is SATELLITE DEBRIS
aabbcc
Your satellite tracking list
Your tracking list is empty




NASA's NSSDC Master Catalog

Two Line Element Set (TLE):
1  3790U 68091AX  20053.81717047 +.00000110 +00000-0 +59803-4 0  9999
2  3790 062.9713 174.1537 0840075 109.7766 259.5762 13.33783820459234
Source of the keplerian elements: AFSPC